Terminal Aerodrome Forecast
Issued by NWS Cleveland, OH

Home | Current Version | Previous Version | Graphics & Text | Print | Product List | Glossary On
Versions: 1 2 3 4 5 6 7 8 9 10 11 12 13
000
FTUS41 KCLE 191740
TAFYNG
TAF
KYNG 191740Z 1918/2018 27008KT P6SM SKC
     FM200000 VRB03KT P6SM SKC
     FM201200 07006KT P6SM BKN250=

USA.gov is the U.S. government's official web portal to all federal, state and local government web resources and services.